Weather History for KNFL - August, 2014

Change the Weather History Date:

Saturday, August 30, 2014

  Actual Average (KRNO) Record (KRNO)
Temperature  
Mean Temperature 75 °F 70 °F  
Max Temperature 93 °F 87 °F 99 °F (1950)
Min Temperature 59 °F 53 °F 31 °F (1962)
Degree Days  
Heating Degree Days 0 1  
Month to date heating degree days 1  
Since 1 June heating degree days 62  
Since 1 July heating degree days 6  
Cooling Degree Days 10 6  
Month to date cooling degree days 253  
Year to date cooling degree days 740  
Since 1 June cooling degree days 703  
Growing Degree Days 25 (Base 50)    
Moisture  
Dew Point 31 °F    
Average Humidity 20    
Maximum Humidity 36    
Minimum Humidity 11    
Precipitation  
Precipitation 0.00 in 0.00 in 0.41 in (1896)
Month to date precipitation 0.22  
Year to date precipitation 4.68  
Snow  
Snow 0.00 in 0.00 in 0.00 in ()
Month to date snowfall 0.0  
Since 1 June snowfall T  
Since 1 July snowfall 0.0  
Snow Depth -    
Sea Level Pressure  
Sea Level Pressure 29.88 in    
Wind  
Wind Speed 5 mph (WNW)    
Max Wind Speed 21 mph    
Max Gust Speed 28 mph    
Visibility 10 miles    
Events      
T = Trace of Precipitation, MM = Missing Value Source: NWS Daily Summary

Daily Weather History Graph

Daily Weather History Graph

Search for Another Location

Airport or City:

Trip Planner

Search our weather history database for the weather conditions in past years. The results will help you decide how hot, cold, wet, or windy it might be!

Date:

Astronomy

Aug. 30, 2014 Rise Set
Actual Time 6:21 AM PDT 7:28 PM PDT
Civil Twilight 5:53 AM PDT 7:56 PM PDT
Nautical Twilight 5:20 AM PDT 8:29 PM PDT
Astronomical Twilight 4:46 AM PDT 9:03 PM PDT
Moon 11:12 AM PDT 10:07 PM PDT
Length of Visible Light 14h 02m
Length of Day
13h 07m
Waxing Crescent, 24% of the Moon is Illuminated
Aug 30
Waxing Crescent
Sep 2
First Quarter
Sep 8
Full
Sep 15
Last Quarter
Sep 23
New

Hourly Weather History & Observations

Time (PDT) Temp. Dew Point Humidity Pressure Visibility Wind Dir Wind Speed Gust Speed Precip Events Conditions
12:56 AM 66.0 °F 30.9 °F 27% 29.91 in 10.0 mi NE 3.5 mph - N/A   Clear
1:56 AM 68.0 °F 30.9 °F 25% 29.90 in 10.0 mi Calm Calm - N/A   Clear
2:56 AM 64.0 °F 32.0 °F 30% 29.90 in 10.0 mi Calm Calm - N/A   Clear
3:56 AM 64.9 °F 33.1 °F 31% 29.91 in 10.0 mi Calm Calm - N/A   Clear
4:56 AM 64.0 °F 32.0 °F 30% 29.90 in 10.0 mi Calm Calm - N/A   Clear
5:56 AM 62.1 °F 32.0 °F 32% 29.90 in 10.0 mi Calm Calm - N/A   Clear
6:56 AM 59.0 °F 32.0 °F 36% 29.91 in 10.0 mi Calm Calm - N/A   Clear
7:56 AM 70.0 °F 34.0 °F 27% 29.92 in 10.0 mi Calm Calm - N/A   Clear
8:56 AM 75.0 °F 35.1 °F 23% 29.92 in 10.0 mi Calm Calm - N/A   Clear
9:01 AM 75.9 °F 35.1 °F 23% 30.01 in 10.0 mi Variable 3.5 mph - N/A   Partly Cloudy
9:56 AM 80.1 °F 36.0 °F 20% 29.92 in 10.0 mi North 5.8 mph - N/A   Partly Cloudy
10:56 AM 82.0 °F 33.1 °F 17% 29.91 in 10.0 mi Variable 4.6 mph - N/A   Partly Cloudy
11:56 AM 87.1 °F 28.9 °F 12% 29.90 in 10.0 mi NW 11.5 mph 17.3 mph N/A   Partly Cloudy
12:56 PM 87.1 °F 30.9 °F 13% 29.88 in 10.0 mi WNW 9.2 mph 16.1 mph N/A   Scattered Clouds
1:56 PM 87.1 °F 30.0 °F 13% 29.84 in 10.0 mi Calm Calm - N/A   Mostly Cloudy
2:56 PM 90.0 °F 30.9 °F 12% 29.82 in 10.0 mi WNW 5.8 mph 20.7 mph N/A   Mostly Cloudy
3:56 PM 91.9 °F 28.9 °F 11% 29.81 in 10.0 mi West 13.8 mph - N/A   Mostly Cloudy
4:56 PM 91.0 °F 28.9 °F 11% 29.80 in 10.0 mi West 20.7 mph 27.6 mph N/A   Mostly Cloudy
5:56 PM 89.1 °F 28.0 °F 11% 29.81 in 10.0 mi West 19.6 mph 27.6 mph N/A   Overcast
6:56 PM 84.9 °F 28.9 °F 13% 29.81 in 10.0 mi West 13.8 mph - N/A   Clear
7:56 PM 80.1 °F 28.0 °F 15% 29.83 in 10.0 mi West 16.1 mph - N/A   Clear
8:56 PM 77.0 °F 28.0 °F 17% 29.85 in 10.0 mi Variable 4.6 mph - N/A   Clear
9:56 PM 77.0 °F 26.1 °F 15% 29.86 in 10.0 mi West 17.3 mph - N/A   Clear
10:56 PM 72.0 °F 28.9 °F 20% 29.88 in 10.0 mi WSW 10.4 mph - N/A   Clear
11:56 PM 69.1 °F 30.0 °F 23% 29.89 in 10.0 mi WNW 10.4 mph - N/A   Clear